GW3202 Weather Reports


Display with metric or nautical units.
time (UTC)temp
F
wind
direction
speed
MPH
gust
MPH
rain 1hr
in
rain 24hr
in
rain mn
in
humidity
%
barometer
mb
20260902185003 74 256 2.0 12.0 0.00 0.00 0.00 61 1022.4
20260902184002 75 219 2.0 12.0 0.00 0.00 0.00 61 1022.6
20260902183005 74 189 5.0 12.0 0.00 0.00 0.00 62 1022.7
20260902182003 74 148 6.0 12.0 0.00 0.00 0.00 64 1022.9
20260902181002 75 183 6.0 10.0 0.00 0.00 0.00 63 1022.9
20260902180005 74 140 5.0 12.0 0.00 0.00 0.00 62 1023.0
20260902175003 76 170 6.0 9.0 0.00 0.00 0.00 62 1023.0
20260902173003 76 184 2.0 5.0 0.00 0.00 0.00 64 1023.4
20260902172002 74 217 2.0 8.0 0.00 0.00 0.00 63 1023.3
20260902170002 74 173 2.0 5.0 0.00 0.00 0.00 65 1023.1
20260902165003 74 176 2.0 5.0 0.00 0.00 0.00 64 1023.2
20260902164002 73 130 2.0 6.0 0.00 0.00 0.00 67 1023.1
20260902163003 71 351 3.0 6.0 0.00 0.00 0.00 68 1023.1
20260902162003 72 91 2.0 5.0 0.00 0.00 0.00 70 1023.0
20260902161003 70 357 2.0 6.0 0.00 0.00 0.00 73 1023.3
20260902160006 72 123 3.0 6.0 0.00 0.00 0.00 71 1023.1
20260902155002 69 19 1.0 6.0 0.00 0.00 0.00 74 1023.1
20260902154003 70 47 1.0 6.0 0.00 0.00 0.00 75 1023.2
20260902153002 70 307 3.0 7.0 0.00 0.00 0.00 77 1023.3
20260902152003 68 53 4.0 9.0 0.00 0.00 0.00 79 1023.2
20260902151002 67 329 3.0 8.0 0.00 0.00 0.00 81 1023.1
20260902150003 68 356 3.0 8.0 0.00 0.00 0.00 81 1023.3
20260902145003 67 21 2.0 8.0 0.00 0.00 0.00 82 1023.3
20260902144003 67 50 1.0 8.0 0.00 0.00 0.00 84 1023.3
20260902143003 67 83 5.0 8.0 0.00 0.00 0.00 84 1023.1
20260902142005 66 26 5.0 8.0 0.00 0.00 0.00 86 1023.2
20260902141003 67 83 3.0 7.0 0.00 0.00 0.00 86 1023.3
20260902140002 67 58 3.0 7.0 0.00 0.00 0.00 86 1023.1
20260902135003 66 103 2.0 7.0 0.00 0.00 0.00 90 1023.0
20260902134002 64 88 1.0 6.0 0.00 0.00 0.00 92 1023.0
20260902133009 64 74 2.0 5.0 0.00 0.00 0.00 93 1022.8
20260902131003 64 58 2.0 6.0 0.00 0.00 0.00 94 1022.6
20260902130006 64 67 2.0 3.0 0.00 0.00 0.00 94 1022.4
20260902125003 64 130 2.0 7.0 0.00 0.00 0.00 94 1022.5
20260902124003 64 111 2.0 6.0 0.00 0.00 0.00 94 1022.4
20260902123002 64 49 2.0 6.0 0.00 0.00 0.00 95 1022.5
20260902122005 64 82 2.0 6.0 0.00 0.00 0.00 95 1022.5
20260902121003 65 117 2.0 3.0 0.00 0.00 0.00 95 1022.6
20260902120003 64 53 2.0 5.0 0.00 0.00 0.00 95 1022.6
20260902115003 65 104 2.0 5.0 0.00 0.00 0.00 95 1022.5
20260902112003 65 63 1.0 5.0 0.00 0.00 0.00 95 1022.5
20260902111003 65 10 1.0 6.0 0.00 0.00 0.00 95 1022.6
20260902110004 65 76 2.0 6.0 0.00 0.00 0.00 95 1022.7
20260902105003 65 103 1.0 6.0 0.00 0.00 0.00 95 1022.5
20260902104003 65 31 2.0 6.0 0.00 0.00 0.00 95 1022.4
20260902103003 65 99 2.0 6.0 0.00 0.00 0.00 95 1022.4
20260902102004 65 118 2.0 5.0 0.00 0.00 0.00 95 1022.7
20260902101002 65 85 1.0 6.0 0.00 0.00 0.00 95 1022.5
20260902100003 65 99 2.0 6.0 0.00 0.00 0.00 94 1022.6
20260902095003 66 113 3.0 6.0 0.00 0.00 0.00 94 1022.7
20260902093003 66 11 2.0 8.0 0.00 0.00 0.00 94 1022.7
20260902092003 66 101 3.0 5.0 0.00 0.00 0.00 93 1023.0
20260902091003 66 49 2.0 3.0 0.00 0.00 0.00 93 1023.0
20260902090004 66 72 2.0 3.0 0.00 0.00 0.00 93 1023.0
20260902085003 66 20 0.0 5.0 0.00 0.00 0.00 93 1023.1
20260902084003 66 17 2.0 5.0 0.00 0.00 0.00 92 1023.1
20260902083003 66 60 1.0 5.0 0.00 0.00 0.00 92 1023.2
20260902082002 66 28 1.0 5.0 0.00 0.00 0.00 93 1023.2
20260902081003 66 131 2.0 5.0 0.00 0.00 0.00 94 1023.3
20260902080003 66 93 1.0 5.0 0.00 0.00 0.00 94 1023.3
20260902074003 66 96 1.0 3.0 0.00 0.00 0.00 95 1023.4
20260902073003 66 131 1.0 2.0 0.00 0.00 0.00 95 1023.5
20260902071003 66 90 0.0 2.0 0.00 0.00 0.00 95 1023.7
20260902070005 65 175 0.0 2.0 0.00 0.00 0.00 95 1023.6
20260902065003 65 277 1.0 3.0 0.00 0.00 0.00 95 1023.7
20260902064004 65 185 2.0 5.0 0.00 0.00 0.00 95 1023.8
20260902062004 66 245 3.0 3.0 0.00 0.00 0.00 95 1024.0
20260902060003 66 262 0.0 5.0 0.00 0.00 0.00 95 1024.1
20260902055003 66 249 1.0 8.0 0.00 0.00 0.00 96 1024.0
20260902054004 66 254 3.0 7.0 0.00 0.00 0.00 96 1024.0
20260902053004 66 259 2.0 6.0 0.00 0.00 0.00 95 1024.0
20260902051004 66 190 0.0 5.0 0.00 0.00 0.00 95 1023.9
20260902045005 67 285 4.0 6.0 0.00 0.00 0.00 93 1023.9
20260902044003 68 288 1.0 3.0 0.00 0.00 0.00 90 1023.8
20260902043003 67 75 1.0 3.0 0.00 0.00 0.00 90 1023.7
20260902041003 67 65 1.0 5.0 0.00 0.00 0.00 92 1023.6
20260902040005 67 296 2.0 10.0 0.00 0.00 0.00 90 1023.6
20260902035003 67 117 6.0 13.0 0.00 0.00 0.00 89 1023.3
20260902032003 67 124 9.0 18.0 0.00 0.00 0.00 90 1023.0
20260902031003 68 110 5.0 20.0 0.00 0.00 0.00 87 1022.7
20260902030003 68 129 6.0 22.0 0.00 0.00 0.00 85 1022.5
20260902024003 68 118 11.0 20.0 0.00 0.00 0.00 83 1022.3
20260902023003 68 156 6.0 20.0 0.00 0.00 0.00 86 1022.1
20260902022003 68 142 10.0 21.0 0.00 0.00 0.00 85 1021.8
20260902021003 68 138 9.0 22.0 0.00 0.00 0.00 86 1021.8
20260902020004 68 133 10.0 17.0 0.00 0.00 0.00 85 1021.7
20260902015003 68 130 9.0 17.0 0.00 0.00 0.00 86 1021.6
20260902014005 69 141 7.0 15.0 0.00 0.00 0.00 85 1021.4
20260902013003 68 169 3.0 17.0 0.00 0.00 0.00 87 1021.3
20260902012006 68 134 11.0 18.0 0.00 0.00 0.00 88 1021.2
20260902011004 69 135 7.0 20.0 0.00 0.00 0.00 89 1021.0
20260902010003 68 154 7.0 20.0 0.00 0.00 0.00 91 1021.0
20260902004003 71 132 6.0 17.0 0.00 0.00 0.00 83 1020.7
20260902002004 71 152 7.0 14.0 0.00 0.00 0.00 83 1020.7
20260902001003 71 131 10.0 15.0 0.00 0.00 0.00 84 1020.5
20260902000003 72 207 7.0 14.0 0.00 0.00 0.00 82 1020.5
20260901235004 72 166 5.0 13.0 0.00 0.00 0.00 78 1020.4
20260901234004 72 179 2.0 15.0 0.00 0.00 0.00 79 1020.3
20260901232005 71 171 3.0 12.0 0.00 0.00 0.00 81 1020.2
20260901231003 71 161 3.0 14.0 0.00 0.00 0.00 85 1020.0
20260901230004 71 131 6.0 15.0 0.00 0.00 0.00 86 1020.1
20260901225003 72 153 7.0 16.0 0.00 0.00 0.00 86 1020.4
20260901224005 72 182 7.0 15.0 0.00 0.00 0.00 84 1020.2
20260901223004 73 147 6.0 15.0 0.00 0.00 0.00 84 1020.0
20260901221004 73 138 4.0 14.0 0.00 0.00 0.00 76 1020.2
20260901215004 74 188 2.0 12.0 0.00 0.00 0.00 72 1020.4
20260901214004 74 180 4.0 13.0 0.00 0.00 0.00 72 1020.4
20260901212006 75 180 1.0 8.0 0.00 0.00 0.00 70 1020.6
20260901211003 75 164 3.0 8.0 0.00 0.00 0.00 69 1020.5
20260901210003 74 196 5.0 9.0 0.00 0.00 0.00 69 1020.6
20260901203004 73 148 5.0 10.0 0.00 0.00 0.00 72 1021.0
20260901202003 72 203 3.0 14.0 0.00 0.00 0.00 74 1021.4
20260901201004 71 194 4.0 15.0 0.00 0.00 0.00 76 1021.3
20260901200003 72 158 7.0 18.0 0.00 0.00 0.00 77 1021.5
20260901195006 73 188 5.0 18.0 0.00 0.00 0.00 73 1021.6
20260901194004 76 153 8.0 16.0 0.00 0.00 0.00 72 1021.6
20260901193004 77 192 7.0 16.0 0.00 0.00 0.00 65 1021.6
20260901192004 77 139 5.0 15.0 0.00 0.00 0.00 63 1021.8
20260901191005 78 194 3.0 14.0 0.00 0.00 0.00 62 1021.8
20260901190003 78 180 3.0 14.0 0.00 0.00 0.00 62 1021.9